Other Public Products
Issued by NWS Charleston, SC

Current Version | Previous Version | Text Only | Print | Product List | Glossary Off
Versions: 1 2 3 4 5 6 7 8 9 10 11 12 13 14 15 16 17 18 19 20 21 22 23 24 25 26 27 28 29 30 31 32 33 34 35 36 37 38 39 40 41 42 43 44 45 46 47 48 49 50

000
FPUS82 KCHS 212327
OPUCHS

TEST...KCHS/KSAV Gateway Observations...TEST
National Weather Service Charleston SC
700 PM EDT FRI JUL 21 2017

NOTE: "fair" indicates few or no clouds below 12,000 feet with no
significant weather and/or obstructions to visibility.

SCZ050-WAZ558-NCZ071-TXZ119-213-PAZ071-DCZ001-FLZ074-172-MI076-
NYZ176-178-MAZ016-IL014-TNZ027-NJZ106-GAZ044-MD014-220000-

...Gateway Observations for Charleston International...

CITY           SKY/WX    TMP DP  RH WIND       PRES   REMARKS
Chas Airport   MOSUNNY   86  71  60 SW14      30.00S HX  91
Seattle        PTSUNNY   77  52  41 SW8       30.13F
Charlotte      MOSUNNY   93  69  45 W6        29.97S HX  98
Dallas DFW     MOSUNNY   99  68  36 E12       29.89F HX 104
Dallas Love    MOSUNNY   97  68  38 SE16      29.90F HX 102
Philladelphia  PTSUNNY   91  69  48 SW10      29.87S HX  96
Wash National  CLOUDY    93  71  48 S5        29.86F HX 100
Baltimore      CLOUDY    89  70  53 SE7       29.86F HX  94
Miami          CLOUDY    83  73  72 CALM      30.07S
Detroit        CLOUDY    84  70  62 S10       29.95F
Newark         CLOUDY    91  65  41 W13       29.85S HX  93
Laguardia      PTSUNNY   91  68  46 W12       29.84S HX  95
J F K          PTSUNNY   88  70  55 SW15      29.85F HX  93
Boston Logan   MOSUNNY   88  62  41 W13G22    29.77R
Ft. Lauderdale MOSUNNY   81  74  79 VRB3      30.06S
Chicago O`Hare CLOUDY    78  70  76 E14       29.90F
Chicago Midway CLOUDY    83  70  64 NE14      29.90F
Houston Bush   PTSUNNY   87  76  69 NE14      29.95R THUNDER HX  97
Houston Hobby  CLOUDY    88  74  63 S13       29.95S HX  96
Nashville      PTSUNNY   94  70  45 SW3       29.97F HX 100
Atlanta        MOSUNNY   90  72  55 SW5       29.99F HX  97

$$

GAZ044-118-TXZ119-213-NCZ071-DCZ001-MDZ014-506-PAZ021-071-NJZ106-
NYZ176-178-MAZ106-OHZ011-021-055-MIZ076-KYZ091-ILZ014-INZ047-
MNZ060-ONZ431-220000-

...Gateway Observations for Savannah International...

CITY           SKY/WX    TMP DP  RH WIND       PRES   REMARKS
Savannah Arpt  MOSUNNY   91  72  53 SE12      30.01R HX  98
Atlanta        MOSUNNY   90  72  55 SW5       29.99F HX  97
Charlotte      MOSUNNY   93  69  45 W6        29.97S HX  98
Dallas DFW     MOSUNNY   99  68  36 E12       29.89F HX 104
Houston Bush   PTSUNNY   87  76  69 NE14      29.95R THUNDER HX  97
Wash National  CLOUDY    93  71  48 S5        29.86F HX 100
Wash Dulles    CLOUDY    89  71  55 E5        29.88R HX  95
Baltimore      CLOUDY    89  70  53 SE7       29.86F HX  94
Philadelphia   PTSUNNY   91  69  48 SW10      29.87S HX  96
Newark         CLOUDY    91  65  41 W13       29.85S HX  93
Laguardia      PTSUNNY   91  68  46 W12       29.84S HX  95
J F K          PTSUNNY   88  70  55 SW15      29.85F HX  93
Boston         MOSUNNY   88  62  41 W13G22    29.77R
Pittsburg      MOSUNNY   85  71  63 W6        29.96S HX  90
Akron          CLOUDY    90  67  46 W8        29.96R HX  93
Cleveland      MOSUNNY   85  69  58 N10       29.98R
Cincinnati     PTSUNNY   89  78  70 W6        29.95F HX 103
Columbus       SUNNY     80  73  76 SW3       29.98R
Detroit        CLOUDY    84  70  62 S10       29.95F
Chicago O`Hare CLOUDY    78  70  76 E14       29.90F
Minneapolis    PTSUNNY   83  66  56 S12       29.83F
Indianapolis   CLOUDY    89  72  56 CALM      29.93F HX  96
Toronto Canada PTSUNNY   82  54  36 NW14      29.92R

$$




USA.gov is the U.S. government's official web portal to all federal, state and local government web resources and services.